Flight Track Log - Related Links

Times and Time Zones

All times are in EDT time to prevent confusion due to time zone crossing. See the FLG4115 flight status page for this flight to view local times or setup timezone preferences in your user account.


Time Position Orientation Groundspeed Altitude Reporting Facility
EDT Latitude Longitude Course Direction KTS MPH feet Rate Location/Type
Sat 09:46:31 AM 39.0167 -77.4667 288° West 202 232 4,500  Level Potomac TRACON
Sat 09:47:00 AM 39.1766 -77.5167 North  Level FlightAware Approximate
Sat 09:47:31 AM 39.0833 -77.4833 349° North 255 293 7,700  Level Potomac TRACON
Sat 09:48:00 AM 39.2617 -77.5321 349° North  Level FlightAware Approximate
Sat 09:48:31 AM 39.1500 -77.4500 21° North 298 343 10,000  Level Potomac TRACON
Sat 09:49:00 AM 39.3447 -77.5626 344° North  Level FlightAware Approximate
Sat 09:50:00 AM 39.4288 -77.5833 North  Level FlightAware Approximate
Sat 09:50:03 AM 39.2764 -77.4389 North 324 373 12,700  Level Washington Center
Sat 09:51:00 AM 39.4701 -77.6635 288° West  Level FlightAware Approximate
Sat 09:51:03 AM 39.3636 -77.4733 343° North 324 373 14,000  Level Washington Center
Sat 09:52:03 AM 39.4078 -77.5686 301° West 297 342 16,100 1,950 Climbing Washington Center
Sat 09:53:03 AM 39.4542 -77.6664 302° West 302 348 17,900 1,700 Climbing Washington Center
Sat 09:54:03 AM 39.4961 -77.7672 298° West 317 365 19,500 1,450 Climbing Washington Center
Sat 09:55:03 AM 39.5400 -77.8708 299° West 322 371 20,800 1,250 Climbing Washington Center
Sat 09:56:03 AM 39.5733 -77.9822 291° West 322 371 22,000 1,185 Climbing Washington Center
Sat 09:57:45 AM 39.6375 -78.1894 292° West 322 371 24,000 1,074 Climbing Cleveland Center
Sat 09:58:45 AM 39.6733 -78.3067 292° West 348 400 24,900 950 Climbing Cleveland Center
Sat 09:59:45 AM 39.7089 -78.4242 292° West 353 406 25,900 550 Climbing Cleveland Center
Sat 10:00:45 AM 39.7425 -78.5419 290° West 353 406 26,000 50 Climbing Cleveland Center
Sat 10:01:45 AM 39.7800 -78.6678 291° West 358 412 26,000  Level Cleveland Center
Sat 10:02:45 AM 39.8114 -78.7914 288° West 358 412 26,000  Level Cleveland Center
Sat 10:03:45 AM 39.8464 -78.9147 290° West 364 419 26,000  Level Cleveland Center
Sat 10:04:45 AM 39.8836 -79.0275 293° West 370 426 26,000  Level Cleveland Center
Sat 10:05:45 AM 39.9186 -79.1511 290° West 370 426 26,000  Level Cleveland Center
Sat 10:06:45 AM 39.9533 -79.2778 290° West 370 426 26,000  Level Cleveland Center
Sat 10:07:45 AM 39.9964 -79.3989 295° West 370 426 26,000  Level Cleveland Center
Sat 10:08:45 AM 40.0539 -79.5117 304° West 375 432 26,000  Level Cleveland Center
Sat 10:09:45 AM 40.1111 -79.6222 304° West 375 432 26,000  Level Cleveland Center
Sat 10:10:45 AM 40.1683 -79.7328 304° West 375 432 26,000  Level Cleveland Center
Sat 10:11:45 AM 40.2231 -79.8408 304° West 369 425 26,000  Level Cleveland Center
Sat 10:12:45 AM 40.2781 -79.9517 303° West 369 425 26,000  Level Cleveland Center
Sat 10:13:45 AM 40.3369 -80.0711 303° West 362 417 26,000  Level Cleveland Center
Sat 10:14:45 AM 40.3917 -80.1825 303° West 362 417 26,000  Level Cleveland Center
Sat 10:15:45 AM 40.4442 -80.2883 303° West 362 417 26,000  Level Cleveland Center
Sat 10:16:45 AM 40.5028 -80.3919 307° West 362 417 26,000  Level Cleveland Center
Sat 10:17:45 AM 40.5569 -80.5011 303° West 362 417 26,000  Level Cleveland Center
Sat 10:18:45 AM 40.6092 -80.6131 302° West 357 411 26,000  Level Cleveland Center
Sat 10:19:45 AM 40.6633 -80.7200 304° West 362 417 26,000  Level Cleveland Center
Sat 10:20:45 AM 40.7172 -80.8242 304° West 357 411 26,000  Level Cleveland Center
Sat 10:21:45 AM 40.7692 -80.9342 302° West 357 411 26,000  Level Cleveland Center
Sat 10:22:45 AM 40.8231 -81.0414 304° West 352 405 26,000  Level Cleveland Center
Sat 10:23:45 AM 40.8744 -81.1542 301° West 352 405 26,000  Level Cleveland Center
Sat 10:24:45 AM 40.9261 -81.2619 302° West 352 405 26,000  Level Cleveland Center
Sat 10:25:45 AM 40.9733 -81.3586 303° West 352 405 26,000  Level Cleveland Center
Sat 10:26:45 AM 41.0247 -81.4667 302° West 352 405 26,000  Level Cleveland Center
Sat 10:27:45 AM 41.0781 -81.5775 303° West 352 405 26,000  Level Cleveland Center
Sat 10:28:45 AM 41.1375 -81.6942 304° West 352 405 26,000  Level Cleveland Center
Sat 10:29:45 AM 41.1925 -81.8111 302° West 352 405 26,000  Level Cleveland Center
Sat 10:30:45 AM 41.2475 -81.9253 303° West 363 418 26,000  Level Cleveland Center
Sat 10:31:45 AM 41.3022 -82.0425 302° West 369 425 26,000  Level Cleveland Center
Sat 10:32:45 AM 41.3569 -82.1600 302° West 369 425 26,000 -1,150 Level Cleveland Center
Sat 10:33:45 AM 41.4200 -82.2694 308° West 375 432 23,700 -2,200 Descending Cleveland Center
Sat 10:34:45 AM 41.4731 -82.3567 309° West 357 411 21,600 -2,300 Descending Cleveland Center
Sat 10:35:45 AM 41.5319 -82.4583 308° West 352 405 19,100 -2,529 Descending Cleveland Center
Sat 10:36:27 AM 41.5847 -82.5375 312° West 340 391 17,300 -2,300 Descending Cleveland Center
Sat 10:36:45 AM 41.5906 -82.5572 292° West 346 398 16,800 -2,073 Descending Cleveland Center
Sat 10:37:22 AM 41.6311 -82.6250 309° West 335 386 15,400 -1,800 Descending Cleveland Center
Sat 10:37:45 AM 41.6433 -82.6422 314° West 341 392 15,000 -2,226 Descending Cleveland Center
Sat 10:38:24 AM 41.6919 -82.7242 308° West 319 367 13,100 -2,300 Descending Cleveland Center
Sat 10:38:45 AM 41.7019 -82.7442 304° West 331 381 12,700 -984 Descending Cleveland Center
Sat 10:39:25 AM 41.7506 -82.8097 315° West 316 364 12,100 -700 Descending Cleveland Center
Sat 10:39:45 AM 41.7628 -82.8269 314° West 321 369 12,000  Descending Cleveland Center
Sat 10:40:26 AM 41.8158 -82.8900 318° Northwest 313 360 12,100  Climbing Cleveland Center
Sat 10:40:45 AM 41.8281 -82.9072 314° West 310 357 12,000  Descending Cleveland Center
Sat 10:41:27 AM 41.8808 -82.9678 320° Northwest 316 364 12,100  Climbing Cleveland Center
Sat 10:41:45 AM 41.8931 -82.9850 314° West 310 357 12,000  Descending Cleveland Center
Sat 10:42:28 AM 41.9519 -83.0542 319° Northwest 316 364 12,100  Climbing Cleveland Center
Sat 10:42:45 AM 41.9581 -83.0628 314° West 315 362 12,000 -98 Descending Cleveland Center
Sat 10:43:29 AM 42.0150 -83.1292 319° Northwest 294 338 12,000 -100 Level Cleveland Center
Sat 10:43:45 AM 42.0211 -83.1350 325° Northwest 308 354 11,900 109 Descending Cleveland Center
Sat 10:44:24 AM 42.0597 -83.1814 318° Northwest 220 253 12,100 100 Climbing Cleveland Center
Sat 10:44:45 AM 42.0678 -83.1928 314° West 271 312 12,000 -689 Descending Cleveland Center
Sat 10:45:25 AM 42.1086 -83.2281 327° Northwest 216 249 11,400 -1,100 Descending Cleveland Center
Sat 10:45:45 AM 42.1231 -83.2428 323° Northwest 231 266 10,900 -1,333 Descending Cleveland Center
Sat 10:46:01 AM 42.1386 -83.2531 334° Northwest 210 242 10,600 -1,167 Descending FAA TRACON SMA TRACON (SMA)
Sat 10:46:21 AM 42.1558 -83.2583 347° North 224 258 10,200 -1,200 Descending FAA TRACON SMA TRACON (SMA)
Sat 10:46:41 AM 42.1739 -83.2469 25° Northeast 240 276 9,800 -1,500 Descending FAA TRACON SMA TRACON (SMA)
Sat 10:47:01 AM 42.1944 -83.2306 31° Northeast 233 268 9,200 -1,463 Descending FAA TRACON SMA TRACON (SMA)
Sat 10:47:22 AM 42.2125 -83.2156 32° Northeast 235 270 8,800 -1,024 Descending FAA TRACON SMA TRACON (SMA)
Sat 10:47:42 AM 42.2336 -83.1986 31° Northeast 231 266 8,500 -615 Descending FAA TRACON SMA TRACON (SMA)
Sat 10:48:01 AM 42.2481 -83.1861 33° Northeast 208 239 8,400 -462 Descending FAA TRACON SMA TRACON (SMA)
Sat 10:48:21 AM 42.2642 -83.1739 29° Northeast 205 236 8,200 -439 Descending FAA TRACON SMA TRACON (SMA)
Sat 10:48:42 AM 42.2831 -83.1589 30° Northeast 202 232 8,100 -146 Descending FAA TRACON SMA TRACON (SMA)
Sat 10:49:02 AM 42.2969 -83.1475 31° Northeast 201 231 8,100  Level FAA TRACON SMA TRACON (SMA)
Sat 10:49:22 AM 42.3128 -83.1358 29° Northeast 202 232 8,100 -450 Level FAA TRACON SMA TRACON (SMA)
Sat 10:49:42 AM 42.3314 -83.1214 30° Northeast 202 232 7,800 -1,077 Descending FAA TRACON SMA TRACON (SMA)
Sat 10:50:01 AM 42.3464 -83.1097 30° Northeast 202 232 7,400 -1,385 Descending FAA TRACON SMA TRACON (SMA)
Sat 10:50:21 AM 42.3611 -83.0992 28° Northeast 198 228 6,900 -1,500 Descending FAA TRACON SMA TRACON (SMA)
Sat 10:50:41 AM 42.3758 -83.0894 26° Northeast 193 222 6,400 -1,200 Descending FAA TRACON SMA TRACON (SMA)
Sat 10:51:01 AM 42.3942 -83.0867 North 173 199 6,100 -450 Descending FAA TRACON SMA TRACON (SMA)
Sat 10:51:21 AM 42.4017 -83.1011 305° West 159 183 6,100 -150 Level FAA TRACON SMA TRACON (SMA)
Sat 10:51:41 AM 42.4086 -83.1203 296° West 155 178 6,000 -750 Descending FAA TRACON SMA TRACON (SMA)
Sat 10:52:01 AM 42.4142 -83.1358 296° West 156 180 5,600 -1,200 Descending FAA TRACON SMA TRACON (SMA)
Sat 10:52:21 AM 42.4214 -83.1556 296° West 164 189 5,200 -750 Descending FAA TRACON SMA TRACON (SMA)
Sat 10:52:41 AM 42.4200 -83.1747 264° West 170 196 5,100 -150 Descending FAA TRACON SMA TRACON (SMA)
Sat 10:53:01 AM 42.4078 -83.1897 222° Southwest 174 200 5,100 -300 Level FAA TRACON SMA TRACON (SMA)
Sat 10:53:21 AM 42.3969 -83.2028 222° Southwest 169 194 4,900 -750 Descending FAA TRACON SMA TRACON (SMA)
Sat 10:53:41 AM 42.3808 -83.2136 206° Southwest 174 200 4,600 -900 Descending FAA TRACON SMA TRACON (SMA)
Sat 10:54:01 AM 42.3683 -83.2239 211° Southwest 176 203 4,300 -1,050 Descending FAA TRACON SMA TRACON (SMA)
Sat 10:54:21 AM 42.3533 -83.2361 211° Southwest 172 198 3,900 -1,050 Descending FAA TRACON SMA TRACON (SMA)
Sat 10:54:41 AM 42.3389 -83.2475 210° Southwest 171 197 3,600 -1,050 Descending FAA TRACON SMA TRACON (SMA)
Sat 10:55:01 AM 42.3258 -83.2564 207° Southwest 176 203 3,200 -1,050 Descending FAA TRACON SMA TRACON (SMA)
Sat 10:55:21 AM 42.3103 -83.2675 208° Southwest 170 196 2,900 -878 Descending FAA TRACON SMA TRACON (SMA)
Sat 10:55:42 AM 42.2983 -83.2758 207° Southwest 163 188 2,600 -857 Descending FAA TRACON SMA TRACON (SMA)

Login

Don't have an account? Register now (free) for customized features, flight alerts, and more!